VKG342 EKCH-LSZH

Flight info

Callsign VKG342
Flight time N/A
Altitude 34000
Route NEXEN T503 GIMRU DCT MICOS DCT OTMON DCT SWALM DCT OMOGI/N0440F350 T721 RILAX
Aircraft A320/M-SDE3FGHIRWY/LB1

Departure

Time 2026-04-25 12:42
Airport Copenhagen Kastrup Airport (EKCH)

Arrival

Time N/A
Airport Zürich Airport (LSZH)
Time Latitude Longitude Altitude Speed Heading
2026-04-25 12:11 55.62721 12.64094 24 ft 0 kts 32°
2026-04-25 12:30 55.62711 12.64082 26 ft 2 kts 32°
2026-04-25 12:30 55.62698 12.64067 25 ft 2 kts 32°
2026-04-25 12:31 55.62683 12.64052 25 ft 2 kts 54°
2026-04-25 12:31 55.62678 12.64027 27 ft 0 kts 118°
2026-04-25 12:35 55.62655 12.64099 24 ft 17 kts 121°
2026-04-25 12:35 55.62582 12.64266 24 ft 16 kts 126°
2026-04-25 12:35 55.62531 12.64390 24 ft 10 kts 126°
2026-04-25 12:36 55.62483 12.64479 24 ft 10 kts 153°
2026-04-25 12:36 55.62425 12.64470 24 ft 8 kts 197°
2026-04-25 12:36 55.62378 12.64445 24 ft 6 kts 196°
2026-04-25 12:36 55.62356 12.64433 23 ft 0 kts 195°
2026-04-25 12:40 55.62353 12.64432 23 ft 8 kts 195°
2026-04-25 12:40 55.62177 12.64328 22 ft 13 kts 208°
2026-04-25 12:40 55.62097 12.64260 24 ft 13 kts 204°
2026-04-25 12:40 55.62010 12.64189 24 ft 14 kts 205°
2026-04-25 12:41 55.61915 12.64112 24 ft 16 kts 205°
2026-04-25 12:41 55.61807 12.64082 24 ft 16 kts 177°
2026-04-25 12:41 55.61706 12.64090 25 ft 13 kts 177°
2026-04-25 12:41 55.61630 12.64066 27 ft 14 kts 208°
2026-04-25 12:42 55.61367 12.63661 27 ft 92 kts 222°
2026-04-25 12:42 55.60965 12.63044 26 ft 137 kts 223°
2026-04-25 12:42 55.59858 12.61375 597 ft 168 kts 225°
2026-04-25 12:42 55.58964 12.60015 1064 ft 172 kts 231°
2026-04-25 12:43 55.58053 12.58593 1516 ft 177 kts 231°
2026-04-25 12:43 55.57123 12.57143 1958 ft 180 kts 230°
2026-04-25 12:43 55.55046 12.54403 2851 ft 198 kts 224°
2026-04-25 12:44 55.53863 12.52941 3303 ft 218 kts 224°
2026-04-25 12:44 55.52580 12.51358 3750 ft 238 kts 223°
2026-04-25 12:44 55.49713 12.47860 4655 ft 257 kts 223°
2026-04-25 12:45 55.48228 12.46066 5094 ft 260 kts 223°
2026-04-25 12:45 55.46729 12.44251 5541 ft 262 kts 223°
2026-04-25 12:45 55.43717 12.40606 6433 ft 266 kts 223°
2026-04-25 12:46 55.42189 12.38757 6851 ft 267 kts 223°
2026-04-25 12:46 55.40655 12.36899 7278 ft 268 kts 224°
2026-04-25 12:46 55.39121 12.35034 7708 ft 269 kts 224°
2026-04-25 12:46 55.37580 12.33159 8147 ft 269 kts 224°
2026-04-25 12:47 55.36036 12.31281 8600 ft 269 kts 225°
2026-04-25 12:47 55.34489 12.29402 9049 ft 271 kts 225°
2026-04-25 12:47 55.32938 12.27520 9506 ft 272 kts 225°
2026-04-25 12:47 55.31375 12.25629 9939 ft 273 kts 225°
2026-04-25 12:48 55.29783 12.23693 10371 ft 285 kts 225°
2026-04-25 12:48 55.28109 12.21645 10796 ft 301 kts 225°
2026-04-25 12:48 55.26351 12.19495 11237 ft 316 kts 224°
2026-04-25 12:48 55.24536 12.17292 11665 ft 327 kts 224°
2026-04-25 12:49 55.22644 12.15016 12108 ft 332 kts 224°
2026-04-25 12:49 55.20732 12.12730 12563 ft 335 kts 224°
2026-04-25 12:49 55.18809 12.10393 13006 ft 337 kts 225°
2026-04-25 12:49 55.16901 12.07986 13408 ft 338 kts 225°
2026-04-25 12:50 55.15000 12.05542 13845 ft 340 kts 226°
2026-04-25 12:50 55.13091 12.03073 14260 ft 342 kts 226°
2026-04-25 12:50 55.11202 12.00631 14668 ft 344 kts 226°
2026-04-25 12:50 55.09254 11.98120 15088 ft 346 kts 226°
2026-04-25 12:51 55.07350 11.95679 15513 ft 348 kts 226°
2026-04-25 12:51 55.05393 11.93185 15942 ft 349 kts 226°
2026-04-25 12:51 55.03422 11.90680 16377 ft 352 kts 226°
2026-04-25 12:51 55.01437 11.88164 16819 ft 354 kts 226°
2026-04-25 12:52 54.99439 11.85636 17279 ft 356 kts 226°
2026-04-25 12:52 54.97425 11.83088 17735 ft 358 kts 226°
2026-04-25 12:52 54.95400 11.80528 18201 ft 361 kts 226°
2026-04-25 12:52 54.93357 11.77947 18558 ft 364 kts 226°
2026-04-25 12:53 54.91300 11.75350 18967 ft 366 kts 226°
2026-04-25 12:53 54.89231 11.72746 19382 ft 368 kts 226°
2026-04-25 12:53 54.87148 11.70134 19796 ft 370 kts 226°
2026-04-25 12:53 54.85054 11.67514 20218 ft 372 kts 226°
2026-04-25 12:54 54.82950 11.64883 20650 ft 374 kts 226°
2026-04-25 12:54 54.80839 11.62235 21090 ft 375 kts 226°
2026-04-25 12:54 54.78746 11.59609 21525 ft 377 kts 226°
2026-04-25 12:54 54.76613 11.56936 21973 ft 379 kts 226°
2026-04-25 12:55 54.74469 11.54251 22430 ft 382 kts 226°
2026-04-25 12:55 54.73012 11.52431 22748 ft 383 kts 226°
2026-04-25 12:55 54.70136 11.48846 23312 ft 386 kts 225°
2026-04-25 12:55 54.67946 11.46125 23731 ft 388 kts 225°
2026-04-25 12:56 54.65747 11.43401 24141 ft 390 kts 225°
2026-04-25 12:56 54.63539 11.40668 24544 ft 391 kts 225°
2026-04-25 12:56 54.61323 11.37927 24960 ft 392 kts 225°
2026-04-25 12:56 54.59104 11.35185 25357 ft 393 kts 225°
2026-04-25 12:57 54.56885 11.32446 25766 ft 393 kts 225°
2026-04-25 12:57 54.54654 11.29695 26203 ft 394 kts 225°
2026-04-25 12:57 54.52446 11.27000 26636 ft 394 kts 225°
2026-04-25 12:57 54.50204 11.24278 27073 ft 394 kts 225°
2026-04-25 12:58 54.47961 11.21560 27457 ft 394 kts 224°
2026-04-25 12:58 54.45717 11.18844 27917 ft 394 kts 224°
2026-04-25 12:58 54.43476 11.16135 28396 ft 393 kts 224°
2026-04-25 12:58 54.41233 11.13422 28853 ft 393 kts 225°
2026-04-25 12:59 54.39006 11.10728 29327 ft 391 kts 225°
2026-04-25 12:59 54.36782 11.08044 29804 ft 390 kts 225°
2026-04-25 12:59 54.34566 11.05373 30267 ft 389 kts 225°
2026-04-25 12:59 54.32349 11.02718 30690 ft 389 kts 223°
2026-04-25 13:00 54.30013 11.00430 31104 ft 396 kts 215°
2026-04-25 13:00 54.29164 10.99766 31240 ft 399 kts 212°
2026-04-25 13:00 54.24768 10.97083 31702 ft 407 kts 208°
2026-04-25 13:00 54.22072 10.95488 31833 ft 414 kts 207°
2026-04-25 13:01 54.19328 10.93861 31966 ft 420 kts 207°
2026-04-25 13:01 54.16545 10.92214 32097 ft 426 kts 207°
2026-04-25 13:01 54.13724 10.90551 32241 ft 432 kts 207°
2026-04-25 13:01 54.10863 10.88870 32377 ft 438 kts 207°
2026-04-25 13:02 54.07962 10.87171 32521 ft 443 kts 206°
2026-04-25 13:02 54.05027 10.85454 32659 ft 449 kts 206°
2026-04-25 13:02 54.02063 10.83722 32797 ft 454 kts 206°
2026-04-25 13:02 53.99058 10.81970 32905 ft 458 kts 206°
2026-04-25 13:03 53.96033 10.80206 33043 ft 462 kts 206°
2026-04-25 13:03 53.93020 10.78448 33185 ft 466 kts 206°
2026-04-25 13:03 53.89940 10.76653 33350 ft 469 kts 206°
2026-04-25 13:03 53.86847 10.74859 33598 ft 470 kts 206°
2026-04-25 13:04 53.83747 10.73070 33876 ft 471 kts 206°
2026-04-25 13:04 53.80639 10.71277 34007 ft 471 kts 206°
2026-04-25 13:04 53.74434 10.67702 34023 ft 470 kts 206°
2026-04-25 13:05 53.68250 10.64136 34029 ft 469 kts 206°
2026-04-25 13:05 53.62069 10.60580 34033 ft 469 kts 206°
2026-04-25 13:06 53.55921 10.57066 34038 ft 469 kts 206°
2026-04-25 13:06 53.49732 10.53538 34044 ft 469 kts 206°
2026-04-25 13:07 53.43539 10.50011 34046 ft 469 kts 206°
2026-04-25 13:07 53.37351 10.46505 34049 ft 469 kts 206°
2026-04-25 13:08 53.31203 10.43028 34049 ft 469 kts 206°
2026-04-25 13:08 53.25011 10.39544 34055 ft 469 kts 206°
2026-04-25 13:09 53.18829 10.36075 34049 ft 469 kts 206°
2026-04-25 13:09 53.12642 10.32606 34047 ft 469 kts 206°
2026-04-25 13:10 53.06496 10.29173 34075 ft 469 kts 206°
2026-04-25 13:10 53.00315 10.25726 34084 ft 469 kts 206°
2026-04-25 13:11 52.94123 10.22296 34083 ft 469 kts 206°
2026-04-25 13:11 52.87936 10.18875 34085 ft 469 kts 206°
2026-04-25 13:12 52.81744 10.15455 34060 ft 469 kts 206°
2026-04-25 13:12 52.77603 10.13178 34082 ft 469 kts 206°
2026-04-25 13:13 52.69359 10.08658 34081 ft 469 kts 206°
2026-04-25 13:13 52.63169 10.05280 34084 ft 469 kts 206°
2026-04-25 13:14 52.57010 10.01915 34061 ft 468 kts 206°
2026-04-25 13:14 52.50829 9.98543 34084 ft 468 kts 206°
2026-04-25 13:15 52.44638 9.95183 34084 ft 468 kts 205°
2026-04-25 13:15 52.38491 9.91872 34104 ft 468 kts 205°
2026-04-25 13:16 52.32295 9.88548 34103 ft 468 kts 204°
2026-04-25 13:16 52.26031 9.85520 34100 ft 470 kts 202°
2026-04-25 13:17 52.19711 9.82705 34099 ft 471 kts 201°
2026-04-25 13:17 52.13382 9.79942 34100 ft 471 kts 201°
2026-04-25 13:18 52.07115 9.77152 34100 ft 469 kts 201°
2026-04-25 13:18 52.00827 9.74329 34100 ft 468 kts 201°
2026-04-25 13:19 51.94543 9.71522 34102 ft 468 kts 201°
2026-04-25 13:19 51.90340 9.69647 34104 ft 468 kts 201°
2026-04-25 13:20 51.83033 9.66420 34103 ft 468 kts 201°
2026-04-25 13:20 51.75733 9.63200 34116 ft 467 kts 201°
2026-04-25 13:21 51.70474 9.60888 34109 ft 467 kts 201°
2026-04-25 13:21 51.64232 9.58161 34090 ft 467 kts 200°
2026-04-25 13:22 51.57960 9.55421 34112 ft 467 kts 200°
2026-04-25 13:23 51.48552 9.51313 34108 ft 467 kts 200°
2026-04-25 13:23 51.42286 9.48574 34103 ft 467 kts 200°
2026-04-25 13:24 51.36026 9.45865 34111 ft 466 kts 200°
2026-04-25 13:24 51.32904 9.44520 33663 ft 462 kts 200°
2026-04-25 13:24 51.29804 9.43180 32978 ft 461 kts 200°
2026-04-25 13:24 51.26770 9.41873 32290 ft 454 kts 200°
2026-04-25 13:25 51.23738 9.40576 31358 ft 449 kts 200°
2026-04-25 13:25 51.20741 9.39293 30476 ft 443 kts 200°
2026-04-25 13:25 51.17777 9.38021 29490 ft 438 kts 199°
2026-04-25 13:25 51.14858 9.36769 28571 ft 431 kts 199°
2026-04-25 13:26 51.11979 9.35534 27684 ft 425 kts 199°
2026-04-25 13:26 51.09141 9.34320 26813 ft 419 kts 199°
2026-04-25 13:26 51.06355 9.33132 25974 ft 412 kts 199°
2026-04-25 13:26 51.03615 9.31967 25163 ft 407 kts 199°
2026-04-25 13:27 51.00883 9.30807 24378 ft 401 kts 199°
2026-04-25 13:27 50.98205 9.29660 23590 ft 396 kts 199°
2026-04-25 13:27 50.95564 9.28525 22697 ft 391 kts 198°
2026-04-25 13:27 50.92952 9.27412 21858 ft 386 kts 198°
2026-04-25 13:28 50.90409 9.26338 21079 ft 381 kts 198°
2026-04-25 13:28 50.88690 9.25615 20560 ft 377 kts 198°
2026-04-25 13:28 50.85358 9.24213 19567 ft 371 kts 198°
2026-04-25 13:28 50.82879 9.23171 18848 ft 366 kts 198°
2026-04-25 13:29 50.80431 9.22138 18122 ft 362 kts 198°
2026-04-25 13:29 50.78015 9.21115 17478 ft 354 kts 198°
2026-04-25 13:29 50.75711 9.20150 17340 ft 332 kts 199°
2026-04-25 13:30 50.71292 9.18287 15838 ft 333 kts 199°
2026-04-25 13:30 50.69087 9.17351 15417 ft 323 kts 198°
2026-04-25 13:30 50.66949 9.16454 15025 ft 313 kts 198°
2026-04-25 13:31 50.62862 9.14736 14253 ft 298 kts 198°
2026-04-25 13:31 50.60877 9.13903 13877 ft 292 kts 198°
2026-04-25 13:31 50.58934 9.13092 13449 ft 286 kts 198°
2026-04-25 13:31 50.57027 9.12301 13027 ft 280 kts 198°
2026-04-25 13:32 50.55158 9.11522 12613 ft 275 kts 199°
2026-04-25 13:32 50.53323 9.10753 12200 ft 271 kts 199°
2026-04-25 13:32 50.51520 9.09995 11786 ft 266 kts 199°
2026-04-25 13:32 50.49755 9.09255 11387 ft 261 kts 199°
2026-04-25 13:33 50.48014 9.08529 10997 ft 256 kts 198°
2026-04-25 13:33 50.46325 9.07826 10612 ft 253 kts 198°
2026-04-25 13:33 50.44628 9.07125 10225 ft 250 kts 198°
2026-04-25 13:33 50.43498 9.06660 9965 ft 248 kts 198°
2026-04-25 13:34 50.41305 9.05755 9407 ft 244 kts 198°
2026-04-25 13:34 50.39670 9.05077 8991 ft 242 kts 198°
2026-04-25 13:34 50.38045 9.04402 8570 ft 240 kts 199°
2026-04-25 13:34 50.36434 9.03734 8170 ft 239 kts 198°
2026-04-25 13:35 50.34830 9.03065 7765 ft 238 kts 198°
2026-04-25 13:35 50.33235 9.02402 7378 ft 236 kts 198°
2026-04-25 13:35 50.31666 9.01752 6992 ft 236 kts 198°
2026-04-25 13:35 50.30084 9.01096 6600 ft 234 kts 198°
2026-04-25 13:36 50.28510 9.00445 6182 ft 233 kts 198°
2026-04-25 13:36 50.26959 8.99806 5892 ft 226 kts 197°
2026-04-25 13:36 50.25438 8.99180 5486 ft 227 kts 198°
2026-04-25 13:36 50.23904 8.98547 5075 ft 228 kts 197°
2026-04-25 13:37 50.22381 8.97921 4661 ft 230 kts 197°
2026-04-25 13:37 50.20812 8.97278 4234 ft 237 kts 197°
2026-04-25 13:37 50.19215 8.96623 4011 ft 234 kts 197°
2026-04-25 13:37 50.17678 8.95998 4006 ft 223 kts 198°
2026-04-25 13:38 50.16213 8.95402 4011 ft 213 kts 197°
2026-04-25 13:38 50.14816 8.94831 4008 ft 202 kts 196°
2026-04-25 13:38 50.13513 8.94198 3995 ft 189 kts 210°
2026-04-25 13:38 50.12487 8.93072 3993 ft 173 kts 230°
2026-04-25 13:39 50.11805 8.91582 4006 ft 167 kts 248°
2026-04-25 13:39 50.11391 8.89908 4011 ft 165 kts 253°
2026-04-25 13:39 50.10998 8.88233 4006 ft 164 kts 254°
2026-04-25 13:39 50.10609 8.86575 4006 ft 159 kts 254°
2026-04-25 13:40 50.10240 8.85008 3872 ft 150 kts 255°
2026-04-25 13:40 50.09889 8.83514 3688 ft 148 kts 253°
2026-04-25 13:40 50.09534 8.82005 3494 ft 148 kts 253°
2026-04-25 13:40 50.09177 8.80488 3301 ft 151 kts 253°
2026-04-25 13:41 50.08816 8.78958 3088 ft 148 kts 252°
2026-04-25 13:41 50.08456 8.77433 2889 ft 152 kts 254°
2026-04-25 13:41 50.08095 8.75907 2702 ft 149 kts 254°
2026-04-25 13:41 50.07739 8.74402 2490 ft 148 kts 253°
2026-04-25 13:42 50.07381 8.72885 2298 ft 149 kts 252°
2026-04-25 13:42 50.07024 8.71377 2100 ft 149 kts 253°
2026-04-25 13:42 50.06666 8.69869 1900 ft 147 kts 254°
2026-04-25 13:42 50.06312 8.68371 1706 ft 148 kts 252°
2026-04-25 13:43 50.05961 8.66893 1506 ft 147 kts 253°
2026-04-25 13:43 50.05609 8.65410 1310 ft 145 kts 253°
2026-04-25 13:43 50.05260 8.63942 1111 ft 143 kts 252°
2026-04-25 13:43 50.04914 8.62483 920 ft 145 kts 255°
2026-04-25 13:44 50.04566 8.61012 742 ft 145 kts 253°
2026-04-25 13:44 50.04176 8.59563 555 ft 146 kts 254°
2026-04-25 13:44 50.03878 8.58065 448 ft 144 kts 255°
2026-04-25 13:44 50.03528 8.56631 360 ft 136 kts 253°
2026-04-25 13:45 50.03236 8.55397 345 ft 103 kts 249°
2026-04-25 13:45 50.03042 8.54617 332 ft 42 kts 246°
2026-04-25 13:45 50.03017 8.54196 331 ft 40 kts 276°
2026-04-25 13:45 50.03055 8.53774 334 ft 38 kts 281°
2026-04-25 13:46 50.03153 8.53585 333 ft 18 kts 336°
2026-04-25 13:46 50.03261 8.53507 335 ft 17 kts 340°
2026-04-25 13:46 50.03372 8.53485 335 ft 17 kts 325°
2026-04-25 13:46 50.03436 8.53328 334 ft 15 kts 321°
2026-04-25 13:47 50.03503 8.53349 339 ft 10 kts 22°
2026-04-25 13:47 50.03572 8.53401 337 ft 16 kts 34°
2026-04-25 13:47 50.03677 8.53553 349 ft 21 kts
2026-04-25 13:47 50.03721 8.53411 348 ft 10 kts 291°
2026-04-25 13:48 50.03752 8.53428 347 ft 3 kts 41°
2026-04-25 13:48 50.03778 8.53443 344 ft 4 kts
2026-04-25 13:48 50.03800 8.53431 343 ft 0 kts 340°